{"data":{"norad_id":60443,"intl_designator":"2024-144U","name":"STARLINK-32237","alt_names":[],"object_type":"PAYLOAD","status":"ACTIVE","operator":null,"country":"US","launch_date":"2024-08-12","launch_site_code":"AFETR","launch_vehicle":null,"mission":null,"orbit_class":"UNKNOWN","rcs_meters":null,"size_class":null,"mass_kg":null,"dimensions":null,"purposes":["comms"],"wikipedia_slug":null,"has_3d_model":false,"image_url":null,"decayed_at":null,"tle_current":{"epoch":"2026-09-21T18:59:24.470880Z","epoch_age_seconds":77261,"freshness":"FRESH","line1":"1 60443U 24144U   26264.79125545 -.00000363  00000+0  39844-6 0  9996","line2":"2 60443  53.1604  21.9697 0000990 100.0433 260.0681 15.34385354119398","mean_motion":15.34385354,"eccentricity":9.9e-5,"inclination_deg":53.1604,"raan_deg":21.9697,"arg_perigee_deg":100.0433,"mean_anomaly_deg":260.0681,"bstar":3.9844e-7,"rev_number":11939,"period_min":93.848653876033,"perigee_km":462.06952405849,"apogee_km":463.42401904525,"semimajor_km":6840.8837715519,"source":"CELESTRAK","updated_at":"2026-09-22T09:00:49.237250Z"}}}